User: anonymous   Login
Location: Axtheid
(49.6213°N, 11.8205°E)
Time: 23:04:07
(UTC+00:00)
Language:

NOAA 11 - Orbit

View from above orbital plane
View from above orbital plane
View from above satellite
View from above satellite

Ground track
Ground track

The orbit data is extracted from the following two-line orbital elements,

1 19531U 88089A   21103.78697587 -.00000025  00000-0  77917-5 0  9990
2 19531  98.4061 112.1174 0010783 343.6403  16.4423 14.15270910680293
Epoch (UTC): 13 April 2021 18:53:14
Eccentricity: 0.0010783
inclination: 98.4061°
perigee height: 833 km
apogee height: 849 km
right ascension of ascending node: 112.1174°
argument of perigee: 343.6403°
revolutions per day: 14.15270910
mean anomaly at epoch: 16.4423°
orbit number at epoch: 68029

The dashed part of the orbit path shows where the satellite is in the earth's shadow,  

DLR